Погода в Тияпине

Россия / Ульяновская область     54°08′23″N   46°06′27″E
темп.,
°C
ветер,
м/с
пор.,
м/с
влажн.,
%
обл.,
%
осадки,
мм/ч
давл.,
гПа
погр.,
м
17 октября, вс
вс1701:00+7ююз41158100 0.0 1018369
04:00+6ююз4106279 0.0 1018235
07:00+7юз4106047 0.0 1017357
10:00+8юз596077 0.0 1017393
13:00+12юз585038 0.0 10161139
16:00+13зюз575045 0.0 10151368
19:00+8ююз226969 0.0 101525
22:00+6юз228361 0.0 101522
18 октября, пн
пн1801:00+5юз228776 0.0 101520
04:00+4юз228967 0.0 101411
07:00+4юз229184 0.0 101311
10:00+7юз357599 0.0 1013251
13:00+10зюз575873 0.0 1011931
16:00+10зюз685599 0.0 10101510
19:00+8зюз4959100 0.0 1010568
22:00+5юз496896 0.0 1010216
19 октября, вт
вт1901:00+6зсз4978100 0.1 1011461
04:00+4з2590100 0.1 1011182
07:00+3зсз1194100 0.0 101218
10:00+5сз2373100 0.0 1012335
13:00+6зсз2357100 0.0 1012860
16:00+7зсз2357100 0.0 10121030
19:00+4сз2270100 0.0 101215
22:00+3сз227252 0.1 101327
20 октября, ср
ср2001:00+1сз359280 0.0 1014107
04:00+2сз4582100 0.0 1014574
07:00+2сз3699100 0.1 1015277
10:00+2ссз467696 0.3 1017777
13:00+4ссз566293 0.3 10181222
16:00+3ссз4655100 0.3 10191337
19:00+2сз487295 0.1 1021386
22:00−1сз488491 0.1 1022299
21 октября, чт
чт2101:00−2зсз238243 0.0 102343
04:00−3з22885 0.0 102320
07:00−4зюз228978 0.0 102325
10:000юз4771100 0.0 1022375
13:00+4юз684798 0.0 1020737
16:00+5юз6114779 0.0 1019751
19:00+4ююз71454100 0.0 1017564
22:00+5ююз71556100 0.0 1015573